Time,TemperatureF,DewpointF,PressureIn,WindDirection,WindDirectionDegrees,WindSpeedMPH,WindSpeedGustMPH,Humidity,HourlyPrecipIn,Conditions,Clouds,dailyrainin,SoftwareType,DateUTC
2018-04-22 00:03:00,42.7,27.0,30.29,NE,38,0.0,5.0,55,0.00,,,0.00,weatherlink.com 1.10,2018-04-22 04:03:00,
2018-04-22 00:18:00,42.7,28.0,30.29,NE,42,0.0,2.0,57,0.00,,,0.00,weatherlink.com 1.10,2018-04-22 04:18:00,
2018-04-22 00:33:00,41.9,28.0,30.29,NE,44,0.0,1.0,59,0.00,,,0.00,weatherlink.com 1.10,2018-04-22 04:33:00,
2018-04-22 00:48:00,40.7,28.0,30.30,NE,44,1.0,1.0,62,0.00,,,0.00,weatherlink.com 1.10,2018-04-22 04:48:00,
2018-04-22 01:03:00,39.7,27.0,30.30,NE,44,0.0,1.0,62,0.00,,,0.00,weatherlink.com 1.10,2018-04-22 05:03:00,
2018-04-22 01:18:00,40.1,27.0,30.30,NE,44,0.0,1.0,59,0.00,,,0.00,weatherlink.com 1.10,2018-04-22 05:18:00,
2018-04-22 01:33:00,39.7,26.0,30.29,NE,44,0.0,1.0,58,0.00,,,0.00,weatherlink.com 1.10,2018-04-22 05:33:00,
2018-04-22 01:48:00,39.3,25.0,30.29,NE,44,0.0,1.0,58,0.00,,,0.00,weatherlink.com 1.10,2018-04-22 05:48:00,
2018-04-22 02:03:00,38.8,25.0,30.29,NE,44,0.0,2.0,57,0.00,,,0.00,weatherlink.com 1.10,2018-04-22 06:03:00,
2018-04-22 02:18:00,39.5,24.0,30.29,NE,44,1.0,1.0,55,0.00,,,0.00,weatherlink.com 1.10,2018-04-22 06:18:00,
2018-04-22 02:33:00,39.7,24.0,30.29,NE,44,1.0,5.0,54,0.00,,,0.00,weatherlink.com 1.10,2018-04-22 06:33:00,
2018-04-22 02:48:00,39.6,24.0,30.29,NNE,19,0.0,5.0,54,0.00,,,0.00,weatherlink.com 1.10,2018-04-22 06:48:00,
2018-04-22 03:03:00,39.6,24.0,30.29,NNE,19,1.0,6.0,54,0.00,,,0.00,weatherlink.com 1.10,2018-04-22 07:03:00,
2018-04-22 03:18:00,39.5,24.0,30.29,NNE,16,1.0,4.0,54,0.00,,,0.00,weatherlink.com 1.10,2018-04-22 07:18:00,
2018-04-22 03:33:00,38.8,24.0,30.30,NNE,13,0.0,2.0,55,0.00,,,0.00,weatherlink.com 1.10,2018-04-22 07:33:00,
2018-04-22 03:48:00,38.4,24.0,30.30,NNW,348,1.0,2.0,56,0.00,,,0.00,weatherlink.com 1.10,2018-04-22 07:48:00,
2018-04-22 04:03:00,37.8,24.0,30.29,North,355,1.0,1.0,57,0.00,,,0.00,weatherlink.com 1.10,2018-04-22 08:03:00,
2018-04-22 04:18:00,37.5,24.0,30.29,NW,325,1.0,4.0,58,0.00,,,0.00,weatherlink.com 1.10,2018-04-22 08:18:00,
2018-04-22 04:33:00,37.2,23.0,30.29,NNW,327,0.0,6.0,58,0.00,,,0.00,weatherlink.com 1.10,2018-04-22 08:33:00,
2018-04-22 04:48:00,36.9,24.0,30.29,North,350,1.0,8.0,59,0.00,,,0.00,weatherlink.com 1.10,2018-04-22 08:48:00,
2018-04-22 05:04:00,36.6,24.0,30.29,North,5,5.0,7.0,61,0.00,,,0.00,weatherlink.com 1.10,2018-04-22 09:04:00,
2018-04-22 05:19:00,36.4,24.0,30.29,North,355,0.0,6.0,61,0.00,,,0.00,weatherlink.com 1.10,2018-04-22 09:19:00,
2018-04-22 05:34:00,36.9,24.0,30.30,NW,325,1.0,7.0,59,0.00,,,0.00,weatherlink.com 1.10,2018-04-22 09:34:00,
2018-04-22 05:49:00,36.3,24.0,30.30,NNW,329,0.0,8.0,61,0.00,,,0.00,weatherlink.com 1.10,2018-04-22 09:49:00,
2018-04-22 06:04:00,36.2,24.0,30.30,North,355,0.0,5.0,61,0.00,,,0.00,weatherlink.com 1.10,2018-04-22 10:04:00,
2018-04-22 06:19:00,36.4,24.0,30.31,North,5,1.0,10.0,62,0.00,,,0.00,weatherlink.com 1.10,2018-04-22 10:19:00,
2018-04-22 06:34:00,36.9,24.0,30.31,North,355,0.0,8.0,61,0.00,,,0.00,weatherlink.com 1.10,2018-04-22 10:34:00,
2018-04-22 06:49:00,38.0,24.0,30.32,NE,34,7.0,8.0,58,0.00,,,0.00,weatherlink.com 1.10,2018-04-22 10:49:00,
2018-04-22 07:04:00,39.3,25.0,30.32,NNW,346,0.0,9.0,57,0.00,,,0.00,weatherlink.com 1.10,2018-04-22 11:04:00,
2018-04-22 07:19:00,40.9,25.0,30.32,North,355,4.0,8.0,54,0.00,,,0.00,weatherlink.com 1.10,2018-04-22 11:19:00,
2018-04-22 07:35:00,42.4,26.0,30.32,North,360,2.0,6.0,53,0.00,,,0.00,weatherlink.com 1.10,2018-04-22 11:35:00,
2018-04-22 07:49:00,43.5,26.0,30.32,NNE,13,1.0,9.0,50,0.00,,,0.00,weatherlink.com 1.10,2018-04-22 11:49:00,
2018-04-22 08:04:00,45.2,26.0,30.32,NNW,342,0.0,9.0,48,0.00,,,0.00,weatherlink.com 1.10,2018-04-22 12:04:00,
2018-04-22 08:19:00,46.5,27.0,30.32,North,5,5.0,12.0,46,0.00,,,0.00,weatherlink.com 1.10,2018-04-22 12:19:00,
2018-04-22 08:34:00,49.0,27.0,30.32,NNE,19,1.0,8.0,42,0.00,,,0.00,weatherlink.com 1.10,2018-04-22 12:34:00,
2018-04-22 08:49:00,49.4,26.0,30.32,NNE,19,0.0,10.0,40,0.00,,,0.00,weatherlink.com 1.10,2018-04-22 12:49:00,
2018-04-22 09:04:00,50.0,24.0,30.32,NNE,19,4.0,10.0,37,0.00,,,0.00,weatherlink.com 1.10,2018-04-22 13:04:00,
2018-04-22 09:19:00,51.4,25.0,30.32,North,360,4.0,12.0,36,0.00,,,0.00,weatherlink.com 1.10,2018-04-22 13:19:00,
2018-04-22 09:34:00,51.0,24.0,30.32,WNW,290,0.0,14.0,35,0.00,,,0.00,weatherlink.com 1.10,2018-04-22 13:34:00,
2018-04-22 09:49:00,52.2,24.0,30.32,North,355,6.0,12.0,34,0.00,,,0.00,weatherlink.com 1.10,2018-04-22 13:49:00,
2018-04-22 10:04:00,52.5,23.0,30.32,WNW,297,0.0,19.0,32,0.00,,,0.00,weatherlink.com 1.10,2018-04-22 14:04:00,
2018-04-22 10:19:00,53.3,22.0,30.32,NNW,338,4.0,12.0,30,0.00,,,0.00,weatherlink.com 1.10,2018-04-22 14:19:00,
2018-04-22 10:34:00,54.0,22.0,30.32,North,5,8.0,13.0,29,0.00,,,0.00,weatherlink.com 1.10,2018-04-22 14:34:00,
2018-04-22 10:50:00,54.0,22.0,30.32,NNE,13,2.0,15.0,29,0.00,,,0.00,weatherlink.com 1.10,2018-04-22 14:50:00,
2018-04-22 11:05:00,54.8,21.0,30.32,WNW,302,4.0,18.0,27,0.00,,,0.00,weatherlink.com 1.10,2018-04-22 15:05:00,
2018-04-22 11:20:00,54.8,20.0,30.32,WNW,303,8.0,15.0,26,0.00,,,0.00,weatherlink.com 1.10,2018-04-22 15:20:00,
2018-04-22 11:35:00,55.9,21.0,30.31,North,360,4.0,13.0,26,0.00,,,0.00,weatherlink.com 1.10,2018-04-22 15:35:00,
2018-04-22 11:50:00,56.4,21.0,30.31,ENE,71,2.0,13.0,25,0.00,,,0.00,weatherlink.com 1.10,2018-04-22 15:50:00,
2018-04-22 12:05:00,56.0,20.0,30.31,North,350,11.0,11.0,25,0.00,,,0.00,weatherlink.com 1.10,2018-04-22 16:05:00,
2018-04-22 12:20:00,56.1,21.0,30.31,North,350,0.0,12.0,25,0.00,,,0.00,weatherlink.com 1.10,2018-04-22 16:20:00,
2018-04-22 12:35:00,56.3,22.0,30.31,ESE,108,0.0,13.0,26,0.00,,,0.00,weatherlink.com 1.10,2018-04-22 16:35:00,
2018-04-22 12:50:00,57.2,21.0,30.31,North,5,3.0,10.0,24,0.00,,,0.00,weatherlink.com 1.10,2018-04-22 16:50:00,
2018-04-22 13:05:00,57.2,21.0,30.31,West,276,6.0,13.0,24,0.00,,,0.00,weatherlink.com 1.10,2018-04-22 17:05:00,
2018-04-22 13:20:00,57.3,22.0,30.31,West,267,6.0,14.0,25,0.00,,,0.00,weatherlink.com 1.10,2018-04-22 17:20:00,
2018-04-22 13:35:00,58.9,28.0,30.31,SSE,157,2.0,12.0,31,0.00,,,0.00,weatherlink.com 1.10,2018-04-22 17:35:00,
2018-04-22 13:50:00,52.0,37.0,30.31,SSE,161,2.0,7.0,57,0.00,,,0.00,weatherlink.com 1.10,2018-04-22 17:50:00,
2018-04-22 14:05:00,50.1,37.0,30.32,SSE,161,6.0,10.0,60,0.00,,,0.00,weatherlink.com 1.10,2018-04-22 18:05:00,
2018-04-22 14:20:00,49.2,35.0,30.31,SSE,155,4.0,9.0,58,0.00,,,0.00,weatherlink.com 1.10,2018-04-22 18:20:00,